Home > Weather > Madison > Past weeks

Flag for USA Past Weather in Madison, Wisconsin, USA — Yesterday and Last 2 Weeks

Now
82 °F

Scattered clouds.


Feels Like: 83 °F
Forecast: 68 / 83 °F
Wind: 9 mph from Northwest

Location: Dane County Regional-Truax Field

Current Time: Jul 25, 2016 at 12:57:08 PM

Latest Report: Jul 25, 2016 at 11:53 AM


Visibility: 10 mi

Pressure: 30.01 "Hg

Humidity: 55%

Dew Point: 64 °F

Location of MadisonLocation

Past Weather in Madison — Graph

°F

Madison Temperature Yesterday

Maximum temperature yesterday: 90 °F (at 2:53 PM)
Minimum temperature yesterday: 71 °F (at 2:53 AM)
Average temperature yesterday: 80 °F

High & Low Weather Summary for the Past Weeks

 TemperatureHumidityPressure
High93 °F (Jul 21, 3:53 PM)100% (Jul 23, 5:53 AM)30.24 "Hg (Jul 23, 5:53 AM)
Low51 °F (Jul 16, 5:53 AM)36% (Jul 16, 12:53 PM)29.71 "Hg (Jul 13, 4:53 PM)
Average76 °F74%29.96 "Hg
* Reported Jul 10 10:53 AM — Jul 25 10:53 AM, Madison, Weather by CustomWeather, © 2016

Note: Actual official high and low records may vary slightly from our data, if they occured in-between our weather recording intervals... More about our weather records

Advertising

Madison Weather History for the Previous 24 Hours

Scroll right to see more
 ConditionsComfort  
Time TempWeatherWind HumidityBarometerVisibility
10:53 AM
Mon, Jul 25
81 °FPassing clouds.10 mph56%30.00 "Hg10 mi
9:53 AM79 °FPassing clouds.5 mph65%30.00 "Hg10 mi
8:53 AM76 °FPassing clouds.6 mph72%29.99 "Hg10 mi
7:53 AM73 °FScattered clouds.No wind79%29.99 "Hg10 mi
6:53 AM71 °FScattered clouds.5 mph81%29.99 "Hg10 mi
5:53 AM68 °FPassing clouds.3 mph87%29.97 "Hg10 mi
4:53 AM69 °FClear.3 mph87%29.96 "Hg10 mi
3:53 AM71 °FClear.5 mph81%29.95 "Hg10 mi
2:53 AM72 °FClear.3 mph81%29.95 "Hg10 mi
1:53 AM73 °FClear.5 mph79%29.94 "Hg10 mi
12:53 AM74 °FClear.6 mph76%29.93 "Hg10 mi
11:53 PM
Sun, Jul 24
75 °FClear.5 mph74%29.90 "Hg10 mi
10:53 PM76 °FPassing clouds.6 mph72%29.88 "Hg10 mi
9:53 PM77 °FPartly cloudy.5 mph69%29.86 "Hg10 mi
8:53 PM78 °FBroken clouds.3 mph69%29.87 "Hg10 mi
7:53 PM82 °FPartly sunny.5 mph58%29.87 "Hg10 mi
6:53 PM86 °FPartly sunny.12 mph61%29.83 "Hg10 mi
5:53 PM89 °FPartly sunny.10 mph65%29.82 "Hg10 mi
4:53 PM88 °FPartly sunny.7 mph67%29.81 "Hg10 mi
3:53 PM89 °FPartly sunny.7 mph68%29.81 "Hg10 mi
2:53 PM90 °FBroken clouds.9 mph70%29.81 "Hg10 mi
1:53 PM88 °FPartly sunny.6 mph73%29.80 "Hg10 mi
12:53 PM85 °FBroken clouds.5 mph80%29.82 "Hg10 mi
Weather by CustomWeather, © 2016

See weather overviewHow to use our weather pages